User: anonymous   Login
Location: Unspecified
(0.0000°N, 0.0000°E)
Time: 23:11:43
(UTC+00:00)
Language:

FENGYUN 1C DEB - Orbit

View from above orbital plane
View from above orbital plane
View from above satellite
View from above satellite

Ground track
Ground track

The orbit data is extracted from the following two-line orbital elements,

1 30826U 99025AVL 21339.38565139  .00000717  00000-0  11729-3 0  9990
2 30826  98.8484  30.9335 0193068 252.1908 169.7248 14.63108432787112
Epoch (UTC): 05 December 2021 09:15:20
Eccentricity: 0.0193068
inclination: 98.8484°
perigee height: 547 km
apogee height: 819 km
right ascension of ascending node: 30.9335°
argument of perigee: 252.1908°
revolutions per day: 14.63108432
mean anomaly at epoch: 169.7248°
orbit number at epoch: 78711

The dashed part of the orbit path shows where the satellite is in the earth's shadow,  

DLR